Location: Aressy
(43.2833°N, 0.3167°W)
Time: 17:57:54
(UTC+00:00)

SeaSat 1 - Pass Details

Date: 28 January 2021
Orbit: 744 x 747 km, 108.0° (Epoch: 03 March)

Event Time Altitude Azimuth Distance (km) Brightness Sun altitude
Rises 17:29:19 0° 19° (NNE) 3,200 5.3 -4.4°
Reaches altitude 10° 17:31:44 10° 11° (N) 2,272 4.7 -4.8°
Maximum altitude 17:36:11 35° 306° (NW) 1,198 3.9 -5.6°
Drops below altitude 10° 17:40:37 10° 242° (WSW) 2,261 6.7 -6.3°
Sets 17:43:02 0° 234° (SW) 3,182 7.4 -6.8°
